User: anonymous   Login
Location: Unspecified
(0.0000°N, 0.0000°E)
Time: 15:45:25
(UTC+00:00)
Language:

HO-68 - Orbit

View from above orbital plane
View from above orbital plane
View from above satellite
View from above satellite

Ground track
Ground track

The orbit data is extracted from the following two-line orbital elements,

1 36122U 09072B   16040.07703589 -.00000059  00000-0 -43517-4 0  9992
2 36122 100.1618  81.0713 0006806 294.7324  65.3098 13.16332198295626
Epoch (UTC): 09 February 2016 01:50:55
Eccentricity: 0.0006806
inclination: 100.1618°
perigee height: 1193 km
apogee height: 1204 km
right ascension of ascending node: 81.0713°
argument of perigee: 294.7324°
revolutions per day: 13.16332198
mean anomaly at epoch: 65.3098°
orbit number at epoch: 29562

The dashed part of the orbit path shows where the satellite is in the earth's shadow,  

DLR